sat.trackr.live / text

‹ back to catalog

STARLINK-35579

NORAD 66562 · 2025-268F

PAYLOAD ACTIVE UNKNOWN

§ Identity

Operator
Country
US
Launch date
2025-11-21
Launch site
AFETR
Launch vehicle
Mass (kg)
RCS (m²)

Purposes: comms

External: N2YO · Heavens-Above · Gunter

§ Orbital elements

Epoch: 2026-05-25T02:04:25.343616Z

Period
94.27 min
Inclination
43.0019°
Eccentricity
0.0003602
Mean motion
15.27590801 rev/d
Perigee alt
480.5 km
Apogee alt
485.5 km
Semi-major
6,861.2 km
B*
6.4970e-4
RAAN
275.6163°
Arg perigee
266.3708°
Mean anomaly
93.6731°
Rev number
2,964

§ Raw data

STARLINK-355791 66562U 25268F   26145.08640444  .00017667  00000+0  64970-3 0  99912 66562  43.0019 275.6163 0003602 266.3708  93.6731 15.27590801 29645

JSON: /api/v1/satellites/66562 · /tle

For live sub-satellite position, see the globe view (requires WebGL).

§ Visibility from observer

Set your observer location to see the next 7 days of passes ≥ 10°. The values pass through the URL so the page stays shareable.

No JS? Fill the form by hand. The geolocation button needs JavaScript.